SCP
-0 -0 -0 -0 -0 -0 -0 -0 -0 -0 -0 -0 0 0 0 -0 -0 0 -0 0 0 0 0 0 0 0 0 0 0 0 0 0 0 0 0 0 0 0 0 0 0 0 0
-0 -0 -0 -0 -0 -0 -0 -0 -0 -0 -0 -0 -0 0 0 -0 0 0 0 -0 0 0 0 0 0 0 0 0 0 0 0 0 0 0 0 0 0 0 0 0 0 0 0
-0 -0 -0 -0 -0 -0 -0 -0 -0 -0 -0 -0 0 0 0 0 0 0 0 -0 0 0 0 0 0 0 0 0 0 0 0 0 0 0 0 0 0 0 0 0 0 0 0
-0 -0 -0 -0 -0 -0 -0 -0 -0 -0 -0 -0 -0 -0 -0 -0 -0 -0 -0 0 0 0 -0 -0 0 0 0 0 0 0 0 0 0 0 0 1 0 0 0 0 0 0 0
-0 -0 -0 -0 -0 -0 -0 -0 -0 -0 -0 -0 -0 -0 -0 -0 0 0 0 0 0 0 0 0 0 0 0 0 0 0 1 1 1 1 1 1 1 0 1 0 0 0 0
-0 -0 -0 -0 -0 -0 -0 -0 -0 -0 -0 -0 -0 -0 -0 0 0 0 0 0 0 -0 -0 0 0 0 0 0 1 1 1 1 1 1 1 1 1 1 1 1 1 0 0
-0 -0 -0 -0 -0 -0 -0 -0 -0 -0 -0 -0 -0 -0 0 0 0 0 0 0 0 -0 -0 0 0 0 0 0 1 1 1 1 1 1 2 2 2 2 2 2 1 1 0
-0 -0 -0 -0 -0 -0 -0 -0 -0 0 -0 -0 0 0 0 0 0 0 0 0 0 0 0 0 0 0 0 1 1 1 1 1 1 1 1 2 2 2 2 2 2 2 1
0 -0 -0 -0 -0 -0 -0 -0 0 0 0 0 0 0 0 0 0 0 0 0 0 0 0 0 1 1 1 1 1 1 1 1 2 2 2 2 2 3 2 2 2 1 1
0 0 0 0 0 0 0 0 0 0 0 0 0 0 0 0 0 0 0 0 0 1 1 1 1 1 1 1 1 1 1 1 2 2 2 3 3 3 3 3 2 2 1
0 0 0 0 0 0 0 0 0 0 0 0 0 0 0 0 0 0 1 1 1 2 1 1 1 1 1 1 1 1 1 2 2 3 3 3 3 4 4 3 2 2 1
0 0 0 0 0 0 0 0 0 0 0 0 1 0 0 1 1 1 2 2 3 2 2 2 2 2 1 1 2 2 2 2 2 3 3 3 4 4 4 4 2 2 1
0 0 0 0 0 0 0 0 0 0 0 0 0 0 0 0 0 0 0 0 0 0 0 0 0 0 1 1 1 2 2 3 3 3 4 4 4 4 5 4 3 3 2
0 0 0 0 0 0 0 0 0 0 0 0 0 0 0 0 0 0 0 0 0 0 0 0 0 0 0 0 0 1 2 2 3 4 5 5 5 5 5 4 3 3 2
0 0 0 0 0 0 0 0 0 0 0 0 0 0 0 0 0 0 0 0 0 0 0 0 0 0 0 0 0 0 1 1 2 3 4 5 5 4 3 4 3 2 2
0 0 0 0 0 0 0 0 0 0 0 0 0 0 0 0 0 0 0 0 0 0 0 0 0 0 0 0 0 0 0 0 1 1 2 4 3 2 2 2 1 1 1
0 0 0 0 0 0 0 0 0 0 0 0 0 0 0 0 0 0 0 0 0 0 0 0 0 0 0 0 0 0 0 0 0 1 1 2 2 1 2 1 0 0 0
0 0 0 0 0 0 0 0 0 0 0 0 0 0 0 0 0 0 0 0 0 0 0 0 0 0 0 0 0 0 0 0 0 0 1 1 1 1 1 1 1 0 0
0 0 0 0 0 0 0 0 0 0 0 0 0 0 0 0 0 0 0 0 0 0 0 0 0 0 0 0 0 0 0 0 0 0 0 1 1 1 0 1 1 0 0
0 0 0 0 0 0 0 0 0 0 0 0 0 0 0 0 0 0 0 0 0 0 0 0 0 0 0 0 0 0 0 0 0 0 1 0 1 0 0 0 0 0 0
0 0 0 0 0 0 0 0 0 0 0 0 0 0 0 0 0 0 0 0 0 0 0 0 0 0 0 0 0 0 0 0 0 0 0 0 0 0 0 0 0 0 0
0 0 0 0 0 0 0 0 0 0 0 0 0 0 0 0 0 0 0 0 0 0 0 0 0 0 0 0 0 0 0 0 0 0 0 0 0 0 0 0 0 0 0
0 0 0 0 0 0 0 0 0 0 0 0 0 0 0 0 0 0 0 0 0 0 0 0 0 0 0 0 0 0 0 0 0 0 0 0 0 0 0 0 0 0 0
0 0 0 0 0 0 0 0 0 0 0 0 0 0 0 0 0 0 0 0 0 0 -0 0 0 0 0 0 0 0 0 0 0 0 0 0 0 0 0 0 0 0 0
0 0 0 0 0 0 0 0 0 0 0 0 0 0 0 0 0 0 0 0 -0 -0 -0 -0 -0 0 0 0 0 0 0 0 0 0 0 0 0 0 0 0 0 0 0
0 0 0 0 0 0 0 0 0 0 0 0 0 0 0 0 0 0 0 -0 -0 -0 -0 -0 -0 -0 0 0 0 0 0 0 0 0 0 0 0 0 0 0 0 0 0
Wind_Speed_500mb
69 64 60 60 62 62 62 61 60 55 54 52 51 50 50 46 44 41 35 33 32 30 30 28 28 27 27 21 23 31 39 39 35 40 41 45 46 41 29 16 29 26 22
69 74 75 72 72 69 68 68 66 64 59 58 53 51 46 40 36 35 38 39 43 44 42 37 31 28 29 30 28 30 36 41 39 41 43 45 51 16 15 37 22 22 21
72 74 80 85 83 82 79 75 72 70 66 63 62 61 58 55 49 44 41 43 48 53 55 51 41 37 36 35 35 38 43 47 43 44 43 29 22 53 41 42 24 23 30
74 72 74 84 92 88 81 79 75 74 72 70 70 66 58 53 42 36 32 36 47 51 50 48 47 39 36 37 40 41 45 46 50 46 52 52 52 51 47 42 46 41 33
84 81 82 82 81 84 81 79 79 76 74 73 70 65 62 54 45 40 38 36 37 41 38 37 38 41 44 46 45 46 52 55 58 55 56 52 55 56 56 68 58 48 45
86 85 80 77 79 78 79 79 81 78 74 74 72 70 62 54 53 47 46 39 35 40 40 40 42 44 47 47 48 51 53 50 52 55 59 62 60 58 54 57 61 60 54
85 86 82 79 77 77 74 76 77 79 75 71 72 71 65 58 52 47 45 44 40 42 46 46 47 49 51 54 52 54 58 57 62 63 62 61 61 62 58 61 66 63 61
75 84 85 81 74 74 71 70 74 73 72 68 66 66 66 61 58 54 47 46 45 44 43 47 50 50 54 62 60 62 74 67 63 63 61 67 70 63 60 55 59 60 58
78 78 75 80 75 72 70 68 70 69 65 63 61 59 59 56 50 47 46 43 44 45 47 51 54 59 62 65 68 63 66 62 63 57 55 59 63 67 62 54 61 54 61
63 59 60 66 70 64 62 64 64 64 64 58 59 57 59 60 56 51 52 48 44 47 50 56 55 58 61 58 62 66 62 60 61 58 60 60 65 63 60 55 59 66 67
50 53 51 52 51 48 46 51 56 54 52 55 52 54 57 58 56 54 53 55 57 55 51 55 61 63 58 55 56 63 64 67 64 63 59 58 51 58 58 57 59 74 71
21 20 29 32 33 30 32 30 34 40 43 45 48 46 47 46 46 47 51 54 54 54 58 60 58 55 59 60 60 61 60 60 63 62 59 62 56 56 62 62 64 73 70
29 31 32 34 35 28 22 17 16 22 29 31 35 38 38 39 42 45 46 47 50 58 58 59 62 62 64 66 64 65 67 65 66 66 67 68 61 64 61 63 64 73 69
34 40 41 43 40 35 30 28 23 12 8 15 23 29 30 30 29 31 39 48 52 55 57 63 66 66 67 68 69 69 67 67 70 71 72 71 68 67 66 66 63 63 69
56 61 64 64 58 54 46 37 25 3 2 10 19 20 23 25 31 36 42 47 50 55 59 62 62 62 62 63 64 66 68 72 75 74 73 73 74 67 63 64 66 65 72
74 81 78 73 63 49 36 24 14 17 5 14 20 20 21 25 30 36 41 44 47 49 52 54 58 60 61 62 63 65 69 70 74 78 77 74 67 68 65 61 65 66 63
84 78 72 62 57 47 32 15 6 10 14 21 25 23 20 24 29 33 37 42 47 52 54 54 56 58 57 56 57 60 65 70 71 71 72 69 65 57 54 55 55 63 50
70 58 56 58 41 21 13 11 23 9 8 16 20 21 23 26 32 37 43 47 50 53 55 55 56 57 52 49 50 53 55 60 62 62 62 60 58 49 47 47 51 48 33
61 58 54 32 29 22 32 27 10 6 9 15 18 21 27 34 40 42 43 45 47 48 48 49 46 46 47 47 46 49 47 51 51 47 44 50 49 43 43 45 49 42 35
60 58 37 32 32 33 23 12 4 9 10 13 17 23 30 34 36 38 40 41 44 43 40 38 39 43 46 46 45 42 44 45 44 39 41 40 36 37 39 45 47 48 44
54 42 38 36 27 18 9 5 6 9 10 11 18 23 24 27 30 32 34 37 41 38 32 30 31 40 44 44 42 42 38 38 40 39 36 29 27 32 32 41 48 47 46
51 43 37 24 16 11 12 12 11 8 2 8 11 15 20 23 25 27 27 29 30 33 34 35 37 37 38 41 44 40 34 31 35 29 33 32 28 30 29 38 46 46 48
55 46 30 27 23 17 14 12 11 6 3 2 8 12 15 20 24 29 32 35 37 37 44 52 55 52 46 51 42 43 41 38 34 33 35 33 24 27 25 53 50 53 57
49 40 33 26 22 19 15 13 12 9 7 10 16 20 24 25 29 36 41 41 44 47 49 52 54 58 65 64 63 53 43 37 31 30 30 35 31 21 24 51 49 55 64
43 37 32 24 18 15 15 14 12 14 16 17 17 18 20 27 31 38 45 48 43 40 41 43 42 47 53 60 57 56 50 37 33 23 24 20 24 32 14 14 20 18 30
43 37 26 16 12 11 9 11 16 15 13 14 13 18 23 27 30 34 41 48 45 38 39 41 44 43 40 47 48 45 41 38 31 31 38 39 39 37 43 45 45 41 45
Wind_Direction_500mb
216 221 220 222 223 224 225 223 223 223 221 220 218 220 225 229 234 237 240 246 253 263 269 273 272 264 265 284 282 272 272 285 292 304 306 308 313 322 311 308 319 321 305
222 221 225 227 228 229 229 229 229 229 230 229 230 231 236 242 248 249 248 250 256 261 266 268 270 273 271 274 278 282 285 285 286 296 303 313 316 340 317 324 319 325 333
220 223 222 227 230 232 232 233 234 234 234 235 233 235 238 242 246 250 252 255 260 262 263 263 267 272 272 276 281 282 287 286 287 289 288 296 294 311 315 314 326 323 325
226 226 226 226 230 233 237 239 240 239 239 237 236 239 242 246 252 259 268 269 262 257 257 258 261 259 265 273 282 283 281 286 280 281 278 282 282 290 303 300 302 303 318
226 226 226 228 228 233 236 240 243 243 243 241 242 244 246 252 256 258 261 263 261 251 247 246 256 263 270 277 283 290 293 287 284 281 283 279 280 280 278 287 296 298 296
231 233 233 231 233 232 236 239 242 245 246 246 245 247 250 255 257 257 258 261 257 240 239 247 256 265 273 279 286 291 289 291 292 289 282 276 271 274 276 278 286 289 291
227 232 233 231 231 233 234 238 240 242 244 247 247 249 253 255 260 262 265 266 263 253 251 257 262 269 275 279 281 283 287 288 289 289 287 282 275 275 273 274 279 280 290
222 232 233 236 235 233 233 239 241 241 242 244 249 251 253 258 259 261 265 268 269 268 267 267 269 270 272 280 282 283 287 282 282 283 279 281 279 279 276 268 271 272 279
220 225 228 234 237 236 237 237 239 239 244 245 247 248 251 255 262 266 270 273 274 278 276 275 276 277 279 278 281 281 289 281 286 275 278 281 281 280 278 262 261 262 264
213 221 230 233 237 241 245 243 242 241 241 246 249 250 252 254 257 261 265 274 278 281 278 277 278 276 278 275 278 277 282 283 284 281 281 278 277 278 280 272 255 260 256
201 216 222 229 234 238 240 239 238 237 235 240 249 250 253 255 257 260 264 268 270 274 280 281 284 279 279 279 275 276 277 280 280 280 283 284 281 275 276 273 258 259 247
163 181 196 202 205 211 215 215 229 231 225 228 241 249 253 257 262 260 260 261 265 271 277 281 284 281 278 279 280 279 279 279 280 282 279 278 279 276 273 274 265 262 252
139 145 154 160 163 159 163 161 201 227 236 228 237 243 246 252 253 251 252 257 266 273 275 279 283 286 283 285 285 284 282 279 277 277 278 280 276 271 270 269 266 265 259
143 136 134 128 122 126 127 128 119 135 186 238 232 233 236 240 245 253 261 268 275 283 285 286 287 288 289 289 288 288 287 284 280 277 274 273 270 268 268 268 264 261 255
149 142 138 133 133 128 132 127 106 188 237 215 228 234 239 249 263 273 280 288 291 290 289 290 291 291 292 294 295 294 291 285 281 279 277 273 268 268 271 268 263 258 252
153 151 147 140 136 127 118 115 152 160 213 261 249 255 265 276 285 289 292 293 295 296 298 299 300 300 301 300 298 296 294 290 283 280 277 276 275 270 270 268 268 259 261
159 154 145 138 136 135 133 139 185 238 223 262 271 279 297 309 304 304 308 310 309 309 307 305 305 304 305 302 298 295 293 291 287 281 276 276 278 278 271 264 263 259 258
166 156 147 138 137 129 151 245 232 231 276 282 293 314 318 316 319 319 319 317 317 315 316 314 315 314 313 311 308 306 300 296 290 286 282 278 279 276 272 259 251 246 235
162 148 145 155 165 162 182 184 205 293 287 283 305 319 330 330 329 327 327 326 322 322 322 326 330 331 329 326 316 314 313 313 306 297 289 282 276 270 265 251 244 235 211
162 160 164 152 149 143 143 157 195 240 275 301 317 330 333 337 334 334 334 335 337 337 336 344 344 342 341 339 337 325 320 320 312 303 296 283 273 263 261 240 235 205 213
158 158 149 141 130 119 123 174 231 253 271 299 330 341 339 337 342 349 349 350 350 345 341 343 344 340 337 336 343 336 335 334 336 325 319 312 294 265 262 255 223 226 223
155 154 154 147 137 152 172 181 195 215 309 351 340 346 351 355 358 358 354 354 356 10 15 13 10 351 355 351 346 347 340 332 334 330 332 302 290 287 260 250 234 214 213
157 159 161 159 156 149 142 175 178 155 159 43 25 26 31 44 47 39 33 30 25 23 29 27 26 21 18 26 18 11 1 353 353 347 343 346 309 288 251 230 212 205 201
159 163 163 157 151 141 143 172 176 161 132 101 89 76 75 64 52 39 37 38 37 35 32 30 25 21 21 22 20 14 8 7 4 2 358 356 3 341 271 217 198 192 191
167 167 164 153 141 149 163 169 170 147 126 118 98 80 65 63 55 51 44 39 37 36 35 28 20 13 19 19 13 10 14 17 18 27 32 29 49 52 78 167 170 151 128
169 169 167 172 166 156 165 179 166 156 144 127 106 98 78 65 56 55 49 45 43 40 40 38 32 28 27 20 12 19 20 23 30 52 62 63 67 84 92 102 110 118 131
Wind_Speed_850mb
69 64 60 60 62 62 62 61 60 55 54 52 51 50 50 46 44 41 35 33 32 30 30 28 28 27 27 21 23 31 39 39 35 40 41 45 46 41 29 16 29 26 22
69 74 75 72 72 69 68 68 66 64 59 58 53 51 46 40 36 35 38 39 43 44 42 37 31 28 29 30 28 30 36 41 39 41 43 45 51 16 15 37 22 22 21
72 74 80 85 83 82 79 75 72 70 66 63 62 61 58 55 49 44 41 43 48 53 55 51 41 37 36 35 35 38 43 47 43 44 43 29 22 53 41 42 24 23 30
74 72 74 84 92 88 81 79 75 74 72 70 70 66 58 53 42 36 32 36 47 51 50 48 47 39 36 37 40 41 45 46 50 46 52 52 52 51 47 42 46 41 33
84 81 82 82 81 84 81 79 79 76 74 73 70 65 62 54 45 40 38 36 37 41 38 37 38 41 44 46 45 46 52 55 58 55 56 52 55 56 56 68 58 48 45
86 85 80 77 79 78 79 79 81 78 74 74 72 70 62 54 53 47 46 39 35 40 40 40 42 44 47 47 48 51 53 50 52 55 59 62 60 58 54 57 61 60 54
85 86 82 79 77 77 74 76 77 79 75 71 72 71 65 58 52 47 45 44 40 42 46 46 47 49 51 54 52 54 58 57 62 63 62 61 61 62 58 61 66 63 61
75 84 85 81 74 74 71 70 74 73 72 68 66 66 66 61 58 54 47 46 45 44 43 47 50 50 54 62 60 62 74 67 63 63 61 67 70 63 60 55 59 60 58
78 78 75 80 75 72 70 68 70 69 65 63 61 59 59 56 50 47 46 43 44 45 47 51 54 59 62 65 68 63 66 62 63 57 55 59 63 67 62 54 61 54 61
63 59 60 66 70 64 62 64 64 64 64 58 59 57 59 60 56 51 52 48 44 47 50 56 55 58 61 58 62 66 62 60 61 58 60 60 65 63 60 55 59 66 67
50 53 51 52 51 48 46 51 56 54 52 55 52 54 57 58 56 54 53 55 57 55 51 55 61 63 58 55 56 63 64 67 64 63 59 58 51 58 58 57 59 74 71
21 20 29 32 33 30 32 30 34 40 43 45 48 46 47 46 46 47 51 54 54 54 58 60 58 55 59 60 60 61 60 60 63 62 59 62 56 56 62 62 64 73 70
29 31 32 34 35 28 22 17 16 22 29 31 35 38 38 39 42 45 46 47 50 58 58 59 62 62 64 66 64 65 67 65 66 66 67 68 61 64 61 63 64 73 69
34 40 41 43 40 35 30 28 23 12 8 15 23 29 30 30 29 31 39 48 52 55 57 63 66 66 67 68 69 69 67 67 70 71 72 71 68 67 66 66 63 63 69
56 61 64 64 58 54 46 37 25 3 2 10 19 20 23 25 31 36 42 47 50 55 59 62 62 62 62 63 64 66 68 72 75 74 73 73 74 67 63 64 66 65 72
74 81 78 73 63 49 36 24 14 17 5 14 20 20 21 25 30 36 41 44 47 49 52 54 58 60 61 62 63 65 69 70 74 78 77 74 67 68 65 61 65 66 63
84 78 72 62 57 47 32 15 6 10 14 21 25 23 20 24 29 33 37 42 47 52 54 54 56 58 57 56 57 60 65 70 71 71 72 69 65 57 54 55 55 63 50
70 58 56 58 41 21 13 11 23 9 8 16 20 21 23 26 32 37 43 47 50 53 55 55 56 57 52 49 50 53 55 60 62 62 62 60 58 49 47 47 51 48 33
61 58 54 32 29 22 32 27 10 6 9 15 18 21 27 34 40 42 43 45 47 48 48 49 46 46 47 47 46 49 47 51 51 47 44 50 49 43 43 45 49 42 35
60 58 37 32 32 33 23 12 4 9 10 13 17 23 30 34 36 38 40 41 44 43 40 38 39 43 46 46 45 42 44 45 44 39 41 40 36 37 39 45 47 48 44
54 42 38 36 27 18 9 5 6 9 10 11 18 23 24 27 30 32 34 37 41 38 32 30 31 40 44 44 42 42 38 38 40 39 36 29 27 32 32 41 48 47 46
51 43 37 24 16 11 12 12 11 8 2 8 11 15 20 23 25 27 27 29 30 33 34 35 37 37 38 41 44 40 34 31 35 29 33 32 28 30 29 38 46 46 48
55 46 30 27 23 17 14 12 11 6 3 2 8 12 15 20 24 29 32 35 37 37 44 52 55 52 46 51 42 43 41 38 34 33 35 33 24 27 25 53 50 53 57
49 40 33 26 22 19 15 13 12 9 7 10 16 20 24 25 29 36 41 41 44 47 49 52 54 58 65 64 63 53 43 37 31 30 30 35 31 21 24 51 49 55 64
43 37 32 24 18 15 15 14 12 14 16 17 17 18 20 27 31 38 45 48 43 40 41 43 42 47 53 60 57 56 50 37 33 23 24 20 24 32 14 14 20 18 30
43 37 26 16 12 11 9 11 16 15 13 14 13 18 23 27 30 34 41 48 45 38 39 41 44 43 40 47 48 45 41 38 31 31 38 39 39 37 43 45 45 41 45
Wind_Direction_850mb
216 221 220 222 223 224 225 223 223 223 221 220 218 220 225 229 234 237 240 246 253 263 269 273 272 264 265 284 282 272 272 285 292 304 306 308 313 322 311 308 319 321 305
222 221 225 227 228 229 229 229 229 229 230 229 230 231 236 242 248 249 248 250 256 261 266 268 270 273 271 274 278 282 285 285 286 296 303 313 316 340 317 324 319 325 333
220 223 222 227 230 232 232 233 234 234 234 235 233 235 238 242 246 250 252 255 260 262 263 263 267 272 272 276 281 282 287 286 287 289 288 296 294 311 315 314 326 323 325
226 226 226 226 230 233 237 239 240 239 239 237 236 239 242 246 252 259 268 269 262 257 257 258 261 259 265 273 282 283 281 286 280 281 278 282 282 290 303 300 302 303 318
226 226 226 228 228 233 236 240 243 243 243 241 242 244 246 252 256 258 261 263 261 251 247 246 256 263 270 277 283 290 293 287 284 281 283 279 280 280 278 287 296 298 296
231 233 233 231 233 232 236 239 242 245 246 246 245 247 250 255 257 257 258 261 257 240 239 247 256 265 273 279 286 291 289 291 292 289 282 276 271 274 276 278 286 289 291
227 232 233 231 231 233 234 238 240 242 244 247 247 249 253 255 260 262 265 266 263 253 251 257 262 269 275 279 281 283 287 288 289 289 287 282 275 275 273 274 279 280 290
222 232 233 236 235 233 233 239 241 241 242 244 249 251 253 258 259 261 265 268 269 268 267 267 269 270 272 280 282 283 287 282 282 283 279 281 279 279 276 268 271 272 279
220 225 228 234 237 236 237 237 239 239 244 245 247 248 251 255 262 266 270 273 274 278 276 275 276 277 279 278 281 281 289 281 286 275 278 281 281 280 278 262 261 262 264
213 221 230 233 237 241 245 243 242 241 241 246 249 250 252 254 257 261 265 274 278 281 278 277 278 276 278 275 278 277 282 283 284 281 281 278 277 278 280 272 255 260 256
201 216 222 229 234 238 240 239 238 237 235 240 249 250 253 255 257 260 264 268 270 274 280 281 284 279 279 279 275 276 277 280 280 280 283 284 281 275 276 273 258 259 247
163 181 196 202 205 211 215 215 229 231 225 228 241 249 253 257 262 260 260 261 265 271 277 281 284 281 278 279 280 279 279 279 280 282 279 278 279 276 273 274 265 262 252
139 145 154 160 163 159 163 161 201 227 236 228 237 243 246 252 253 251 252 257 266 273 275 279 283 286 283 285 285 284 282 279 277 277 278 280 276 271 270 269 266 265 259
143 136 134 128 122 126 127 128 119 135 186 238 232 233 236 240 245 253 261 268 275 283 285 286 287 288 289 289 288 288 287 284 280 277 274 273 270 268 268 268 264 261 255
149 142 138 133 133 128 132 127 106 188 237 215 228 234 239 249 263 273 280 288 291 290 289 290 291 291 292 294 295 294 291 285 281 279 277 273 268 268 271 268 263 258 252
153 151 147 140 136 127 118 115 152 160 213 261 249 255 265 276 285 289 292 293 295 296 298 299 300 300 301 300 298 296 294 290 283 280 277 276 275 270 270 268 268 259 261
159 154 145 138 136 135 133 139 185 238 223 262 271 279 297 309 304 304 308 310 309 309 307 305 305 304 305 302 298 295 293 291 287 281 276 276 278 278 271 264 263 259 258
166 156 147 138 137 129 151 245 232 231 276 282 293 314 318 316 319 319 319 317 317 315 316 314 315 314 313 311 308 306 300 296 290 286 282 278 279 276 272 259 251 246 235
162 148 145 155 165 162 182 184 205 293 287 283 305 319 330 330 329 327 327 326 322 322 322 326 330 331 329 326 316 314 313 313 306 297 289 282 276 270 265 251 244 235 211
162 160 164 152 149 143 143 157 195 240 275 301 317 330 333 337 334 334 334 335 337 337 336 344 344 342 341 339 337 325 320 320 312 303 296 283 273 263 261 240 235 205 213
158 158 149 141 130 119 123 174 231 253 271 299 330 341 339 337 342 349 349 350 350 345 341 343 344 340 337 336 343 336 335 334 336 325 319 312 294 265 262 255 223 226 223
155 154 154 147 137 152 172 181 195 215 309 351 340 346 351 355 358 358 354 354 356 10 15 13 10 351 355 351 346 347 340 332 334 330 332 302 290 287 260 250 234 214 213
157 159 161 159 156 149 142 175 178 155 159 43 25 26 31 44 47 39 33 30 25 23 29 27 26 21 18 26 18 11 1 353 353 347 343 346 309 288 251 230 212 205 201
159 163 163 157 151 141 143 172 176 161 132 101 89 76 75 64 52 39 37 38 37 35 32 30 25 21 21 22 20 14 8 7 4 2 358 356 3 341 271 217 198 192 191
167 167 164 153 141 149 163 169 170 147 126 118 98 80 65 63 55 51 44 39 37 36 35 28 20 13 19 19 13 10 14 17 18 27 32 29 49 52 78 167 170 151 128
169 169 167 172 166 156 165 179 166 156 144 127 106 98 78 65 56 55 49 45 43 40 40 38 32 28 27 20 12 19 20 23 30 52 62 63 67 84 92 102 110 118 131